Flag for U.S.A. Weather past 2 weeks in French Lick, Indiana, U.S.A.

Now
48 °F

Clear.


Feels Like: 45 °F
Forecast: 45 / 71 °F
Wind: 7 mph from Northeast

Location: Huntingburg Airport


UV Index: 5 (Moderate)

Visibility: 10 mi


Pressure: 30.26 "Hg

Humidity: 66%

Dew point: 37 °F

Location of French LickLocation

Historic Weather in French Lick

°F

French Lick temperature yesterday

Maximum temperature yesterday: 72 °F (at 3:55 PM)
Minimum temperature yesterday: 41 °F (at 6:55 AM)
Average temperature yesterday: 58 °F

Past Weeks' High & Low Weather Summary

 TemperatureHumidityPressure
High79 °F (Apr 12, 3:55 PM)87% (Apr 6, 2:15 AM)30.37 "Hg (Apr 6, 2:15 AM)
Low28 °F (Apr 16, 4:15 AM)30% (Apr 16, 6:55 PM)29.44 "Hg (Apr 7, 2:55 PM)
Average54 °F60%30.01 "Hg
* Reported Apr 4 5:35 AM — Apr 19 5:55 AM, French Lick, Weather by CustomWeather, © 2014

Note: Actual official high and low records may vary slightly from our data, if they occured in-between our weather recording intervals... More about our weather records

Advertising

Historic Weather Conditions — Data for Previous 24 hours

 ConditionsComfort  
Time TempWeatherWind HumidityBarometerVisibility
5:55 AM
Apr 19
50 °FClear.7 mph62%30.24 "Hg10 mi
5:35 AM50 °FClear.6 mph62%30.24 "Hg10 mi
5:15 AM52 °FClear.7 mph58%30.24 "Hg10 mi
4:55 AM52 °FClear.8 mph62%30.24 "Hg10 mi
4:35 AM52 °FClear.9 mph62%30.24 "Hg10 mi
4:15 AM52 °FClear.9 mph62%30.23 "Hg10 mi
3:55 AM52 °FClear.8 mph62%30.24 "Hg10 mi
3:35 AM52 °FClear.9 mph62%30.23 "Hg10 mi
3:15 AM52 °FClear.9 mph62%30.23 "Hg10 mi
2:55 AM52 °FClear.8 mph62%30.23 "Hg10 mi
2:35 AM54 °FClear.8 mph58%30.23 "Hg10 mi
2:15 AM54 °FClear.8 mph58%30.23 "Hg10 mi
1:55 AM54 °FClear.7 mph58%30.24 "Hg10 mi
1:35 AM52 °FClear.8 mph62%30.23 "Hg10 mi
1:15 AM52 °FClear.5 mph72%30.23 "Hg10 mi
12:55 AM52 °FClear.No wind67%30.23 "Hg10 mi
12:35 AM54 °FClear.5 mph63%30.22 "Hg10 mi
12:15 AM55 °FClear.3 mph59%30.23 "Hg10 mi
11:55 PM
Apr 18
57 °FClear.5 mph51%30.23 "Hg10 mi
11:15 PM61 °FClear.6 mph45%30.22 "Hg10 mi
10:55 PM61 °FClear.5 mph45%30.22 "Hg10 mi
10:35 PM63 °FClear.3 mph42%30.22 "Hg10 mi
10:15 PM61 °FClear.5 mph45%30.22 "Hg10 mi
9:55 PM63 °FClear.6 mph42%30.21 "Hg10 mi
9:35 PM63 °FClear.5 mph42%30.21 "Hg10 mi
9:15 PM63 °FSunny.5 mph42%30.20 "Hg10 mi
8:55 PM64 °FSunny.7 mph40%30.20 "Hg10 mi
8:35 PM64 °FSunny.7 mph40%30.20 "Hg10 mi
8:15 PM64 °FSunny.7 mph40%30.20 "Hg10 mi
7:55 PM66 °FSunny.7 mph37%30.20 "Hg10 mi
7:35 PM68 °FSunny.6 mph35%30.19 "Hg10 mi
7:15 PM68 °FSunny.7 mph38%30.19 "Hg10 mi
6:55 PM70 °FSunny.9 mph38%30.19 "Hg10 mi
6:35 PM70 °FSunny.5 mph38%30.20 "Hg10 mi
6:15 PM70 °FSunny.6 mph33%30.20 "Hg10 mi
5:55 PM70 °FSunny.6 mph33%30.20 "Hg10 mi
5:35 PM70 °FSunny.6 mph38%30.21 "Hg10 mi
5:15 PM70 °FSunny.10 mph38%30.22 "Hg10 mi
4:55 PM72 °FSunny.8 mph38%30.22 "Hg10 mi
4:35 PM72 °FSunny.9 mph38%30.23 "Hg10 mi
4:15 PM70 °FSunny.8 mph35%30.24 "Hg10 mi
3:55 PM72 °FSunny.No wind36%30.25 "Hg10 mi
3:35 PM70 °FSunny.6 mph38%30.25 "Hg10 mi
3:15 PM70 °FSunny.6 mph33%30.26 "Hg10 mi
2:55 PM70 °FSunny.5 mph35%30.26 "Hg10 mi
2:35 PM70 °FSunny.No wind38%30.27 "Hg10 mi
2:15 PM68 °FSunny.No wind35%30.27 "Hg10 mi
1:55 PM68 °FSunny.No wind40%30.28 "Hg10 mi
1:35 PM66 °FSunny.6 mph43%30.29 "Hg10 mi
1:15 PM66 °FSunny.3 mph46%30.29 "Hg10 mi
12:55 PM66 °FSunny.6 mph43%30.30 "Hg10 mi
12:35 PM66 °FSunny.3 mph46%30.30 "Hg10 mi
12:15 PM64 °FSunny.No wind46%30.30 "Hg10 mi
11:55 AM64 °FSunny.No wind49%30.30 "Hg10 mi
11:35 AM63 °FSunny.6 mph49%30.31 "Hg10 mi
11:15 AM63 °FSunny.No wind49%30.31 "Hg10 mi
10:55 AM61 °FSunny.3 mph52%30.30 "Hg10 mi
10:35 AM59 °FSunny.No wind51%30.30 "Hg10 mi
10:15 AM57 °FSunny.5 mph59%30.30 "Hg10 mi
9:55 AM55 °FSunny.3 mph63%30.30 "Hg10 mi
9:35 AM54 °FSunny.3 mph63%30.30 "Hg10 mi
9:15 AM50 °FSunny.No wind67%30.30 "Hg10 mi
8:55 AM46 °FSunny.3 mph76%30.29 "Hg10 mi
8:35 AM43 °FSunny.No wind87%30.29 "Hg10 mi
8:15 AM41 °FSunny.No wind81%30.29 "Hg10 mi
7:55 AM43 °FClear.No wind81%30.29 "Hg8 mi
7:35 AM41 °FClear.3 mph81%30.28 "Hg10 mi
7:15 AM43 °FClear.3 mph81%30.28 "Hg10 mi
Weather by CustomWeather, © 2014

See weather overview